FDX1378 KAFW-KMEM

Flight info

Callsign FDX1378
Flight time 1h 5m
Altitude 35000
Route KUSSO2 FORCK ELD HOBRK4
Aircraft B77L/H-SDE1E2E3FGHIJ2J3J4J5M1RWXY/LB1D1

Departure

Time 2026-04-21 00:13
Airport Perot Field/Fort Worth Alliance Airport (KAFW)

Arrival

Time 2026-04-21 01:19
Airport Memphis International Airport (KMEM)
Time Latitude Longitude Altitude Speed Heading
2026-04-20 23:46 32.99645 -97.31266 695 ft 0 kts 170°
2026-04-21 00:04 32.99663 -97.31270 687 ft 4 kts 161°
2026-04-21 00:04 32.99686 -97.31284 695 ft 4 kts 141°
2026-04-21 00:04 32.99703 -97.31307 695 ft 4 kts 107°
2026-04-21 00:05 32.99706 -97.31323 695 ft 1 kts 79°
2026-04-21 00:07 32.99709 -97.31302 687 ft 9 kts 79°
2026-04-21 00:07 32.99721 -97.31226 692 ft 9 kts 72°
2026-04-21 00:08 32.99772 -97.31188 695 ft 9 kts 359°
2026-04-21 00:08 32.99835 -97.31201 693 ft 9 kts 348°
2026-04-21 00:08 32.99878 -97.31251 695 ft 9 kts 274°
2026-04-21 00:08 32.99870 -97.31329 691 ft 9 kts 261°
2026-04-21 00:09 32.99859 -97.31407 695 ft 9 kts 259°
2026-04-21 00:09 32.99846 -97.31484 695 ft 9 kts 258°
2026-04-21 00:09 32.99832 -97.31561 695 ft 9 kts 257°
2026-04-21 00:09 32.99820 -97.31637 689 ft 9 kts 260°
2026-04-21 00:10 32.99810 -97.31715 687 ft 9 kts 262°
2026-04-21 00:10 32.99801 -97.31793 688 ft 9 kts 262°
2026-04-21 00:10 32.99830 -97.31873 688 ft 19 kts 333°
2026-04-21 00:10 32.99989 -97.31909 689 ft 24 kts 351°
2026-04-21 00:11 33.00154 -97.31942 690 ft 24 kts 351°
2026-04-21 00:11 33.00319 -97.31975 687 ft 24 kts 348°
2026-04-21 00:11 33.00447 -97.32003 688 ft 10 kts 350°
2026-04-21 00:11 33.00517 -97.32019 687 ft 10 kts 340°
2026-04-21 00:12 33.00538 -97.32092 690 ft 10 kts 259°
2026-04-21 00:12 33.00491 -97.32140 688 ft 11 kts 179°
2026-04-21 00:12 33.00479 -97.32139 687 ft 0 kts 175°
2026-04-21 00:12 33.00359 -97.32117 690 ft 47 kts 170°
2026-04-21 00:13 32.99786 -97.31996 690 ft 117 kts 169°
2026-04-21 00:13 32.98789 -97.31783 692 ft 171 kts 169°
2026-04-21 00:13 32.97568 -97.31516 1112 ft 178 kts 169°
2026-04-21 00:13 32.96350 -97.31273 1799 ft 177 kts 169°
2026-04-21 00:14 32.95225 -97.30719 2355 ft 181 kts 138°
2026-04-21 00:14 32.94548 -97.29370 2617 ft 204 kts 109°
2026-04-21 00:14 32.94213 -97.27641 2851 ft 231 kts 103°
2026-04-21 00:14 32.93921 -97.25676 3307 ft 248 kts 102°
2026-04-21 00:15 32.93631 -97.23603 3987 ft 258 kts 102°
2026-04-21 00:15 32.93332 -97.21469 4785 ft 264 kts 102°
2026-04-21 00:15 32.93026 -97.19302 5622 ft 267 kts 102°
2026-04-21 00:15 32.92711 -97.17106 6424 ft 271 kts 103°
2026-04-21 00:16 32.92388 -97.14880 7226 ft 275 kts 103°
2026-04-21 00:16 32.92055 -97.12608 7967 ft 280 kts 103°
2026-04-21 00:16 32.91717 -97.10302 8712 ft 285 kts 103°
2026-04-21 00:16 32.91372 -97.07962 9445 ft 289 kts 103°
2026-04-21 00:17 32.91019 -97.05590 10165 ft 294 kts 102°
2026-04-21 00:17 32.90651 -97.03129 10559 ft 312 kts 102°
2026-04-21 00:17 32.90260 -97.00515 10757 ft 337 kts 102°
2026-04-21 00:17 32.89832 -96.97667 10953 ft 362 kts 101°
2026-04-21 00:18 32.89378 -96.94641 11399 ft 378 kts 101°
2026-04-21 00:18 32.88911 -96.91526 12105 ft 387 kts 101°
2026-04-21 00:18 32.88433 -96.88346 12967 ft 393 kts 101°
2026-04-21 00:18 32.88113 -96.86218 13536 ft 396 kts 101°
2026-04-21 00:19 32.87622 -96.82962 14373 ft 402 kts 101°
2026-04-21 00:19 32.87123 -96.79660 15170 ft 408 kts 101°
2026-04-21 00:19 32.86447 -96.75204 16178 ft 417 kts 100°
2026-04-21 00:19 32.85929 -96.71792 16933 ft 422 kts 100°
2026-04-21 00:20 32.85574 -96.69460 17420 ft 426 kts 100°
2026-04-21 00:20 32.85039 -96.65970 18091 ft 431 kts 100°
2026-04-21 00:20 32.84323 -96.61280 18987 ft 439 kts 100°
2026-04-21 00:20 32.83953 -96.58853 19434 ft 441 kts 100°
2026-04-21 00:21 32.83570 -96.55213 19993 ft 448 kts 93°
2026-04-21 00:21 32.83479 -96.51489 20604 ft 453 kts 90°
2026-04-21 00:21 32.83409 -96.47774 21249 ft 457 kts 91°
2026-04-21 00:21 32.83281 -96.43986 21856 ft 461 kts 91°
2026-04-21 00:22 32.83314 -96.40154 22410 ft 466 kts 85°
2026-04-21 00:22 32.83592 -96.36301 22966 ft 470 kts 83°
2026-04-21 00:22 32.83980 -96.32417 23519 ft 474 kts 82°
2026-04-21 00:22 32.84394 -96.28501 24078 ft 479 kts 82°
2026-04-21 00:23 32.84797 -96.24546 24595 ft 483 kts 82°
2026-04-21 00:23 32.85178 -96.20547 25080 ft 489 kts 83°
2026-04-21 00:23 32.85538 -96.16505 25578 ft 494 kts 83°
2026-04-21 00:23 32.85883 -96.12424 26057 ft 499 kts 83°
2026-04-21 00:24 32.86221 -96.08302 26508 ft 504 kts 84°
2026-04-21 00:24 32.86556 -96.04134 26941 ft 509 kts 84°
2026-04-21 00:24 32.86894 -95.99927 27394 ft 513 kts 84°
2026-04-21 00:24 32.87230 -95.95738 27843 ft 517 kts 84°
2026-04-21 00:25 32.87573 -95.91458 28286 ft 521 kts 84°
2026-04-21 00:25 32.87916 -95.87168 28833 ft 521 kts 84°
2026-04-21 00:25 32.88260 -95.82863 29473 ft 520 kts 84°
2026-04-21 00:25 32.88601 -95.78581 30044 ft 520 kts 84°
2026-04-21 00:26 32.88941 -95.74281 30571 ft 521 kts 84°
2026-04-21 00:26 32.89280 -95.69992 31136 ft 521 kts 84°
2026-04-21 00:26 32.89618 -95.65669 31287 ft 526 kts 85°
2026-04-21 00:27 32.90285 -95.57097 31268 ft 519 kts 85°
2026-04-21 00:27 32.90947 -95.48554 31267 ft 518 kts 85°
2026-04-21 00:28 32.91611 -95.39886 31527 ft 533 kts 84°
2026-04-21 00:28 32.91947 -95.35473 31883 ft 536 kts 85°
2026-04-21 00:28 32.92281 -95.31045 32342 ft 535 kts 85°
2026-04-21 00:28 32.92612 -95.26643 32857 ft 533 kts 85°
2026-04-21 00:29 32.92941 -95.22252 33305 ft 532 kts 85°
2026-04-21 00:29 32.93268 -95.17875 33735 ft 531 kts 85°
2026-04-21 00:29 32.93589 -95.13555 34127 ft 531 kts 85°
2026-04-21 00:29 32.93912 -95.09175 34492 ft 531 kts 85°
2026-04-21 00:30 32.94235 -95.04784 34782 ft 533 kts 85°
2026-04-21 00:30 32.94562 -95.00318 35049 ft 535 kts 85°
2026-04-21 00:30 32.94881 -94.95951 35211 ft 538 kts 85°
2026-04-21 00:31 32.95524 -94.87063 35268 ft 538 kts 85°
2026-04-21 00:31 32.96158 -94.78208 35251 ft 534 kts 85°
2026-04-21 00:32 32.96782 -94.69400 35269 ft 532 kts 85°
2026-04-21 00:32 32.97397 -94.60613 35271 ft 532 kts 85°
2026-04-21 00:33 32.98010 -94.51820 35284 ft 534 kts 85°
2026-04-21 00:33 32.98617 -94.42987 35279 ft 535 kts 85°
2026-04-21 00:34 32.99216 -94.34195 35277 ft 537 kts 85°
2026-04-21 00:34 32.99933 -94.25323 35287 ft 538 kts 80°
2026-04-21 00:35 33.01428 -94.16587 35295 ft 538 kts 76°
2026-04-21 00:35 33.03029 -94.07860 35283 ft 538 kts 76°
2026-04-21 00:36 33.04575 -93.99197 35290 ft 538 kts 77°
2026-04-21 00:36 33.06093 -93.90464 35273 ft 537 kts 77°
2026-04-21 00:37 33.07595 -93.81729 35270 ft 537 kts 77°
2026-04-21 00:37 33.09094 -93.73011 35278 ft 536 kts 77°
2026-04-21 00:38 33.10586 -93.64297 35263 ft 536 kts 77°
2026-04-21 00:38 33.12072 -93.55581 35257 ft 535 kts 77°
2026-04-21 00:39 33.13540 -93.46935 35268 ft 535 kts 77°
2026-04-21 00:39 33.15011 -93.38233 35268 ft 535 kts 77°
2026-04-21 00:40 33.16478 -93.29520 35265 ft 535 kts 77°
2026-04-21 00:40 33.17937 -93.20812 35263 ft 535 kts 77°
2026-04-21 00:41 33.19392 -93.12091 35268 ft 535 kts 77°
2026-04-21 00:41 33.20839 -93.03371 35270 ft 534 kts 77°
2026-04-21 00:42 33.22279 -92.94657 35269 ft 534 kts 77°
2026-04-21 00:42 33.23713 -92.85937 35282 ft 535 kts 77°
2026-04-21 00:43 33.25137 -92.77286 35285 ft 533 kts 75°
2026-04-21 00:43 33.26246 -92.73095 35273 ft 527 kts 60°
2026-04-21 00:43 33.28162 -92.69439 35206 ft 513 kts 49°
2026-04-21 00:43 33.30270 -92.66014 35003 ft 511 kts 49°
2026-04-21 00:44 33.32364 -92.62596 34757 ft 509 kts 49°
2026-04-21 00:44 33.34431 -92.59166 34547 ft 507 kts 50°
2026-04-21 00:44 33.36467 -92.55728 34384 ft 504 kts 50°
2026-04-21 00:45 33.40409 -92.48950 33707 ft 485 kts 51°
2026-04-21 00:45 33.42341 -92.45605 33442 ft 491 kts 51°
2026-04-21 00:45 33.44265 -92.42276 33300 ft 493 kts 51°
2026-04-21 00:45 33.46209 -92.38909 33280 ft 490 kts 51°
2026-04-21 00:46 33.50076 -92.32211 33272 ft 488 kts 51°
2026-04-21 00:46 33.53935 -92.25515 33276 ft 488 kts 51°
2026-04-21 00:47 33.57791 -92.18811 33278 ft 487 kts 51°
2026-04-21 00:47 33.61628 -92.12122 33277 ft 486 kts 51°
2026-04-21 00:48 33.65461 -92.05438 33287 ft 485 kts 51°
2026-04-21 00:48 33.69282 -91.98759 33285 ft 484 kts 51°
2026-04-21 00:49 33.73092 -91.92087 33285 ft 484 kts 51°
2026-04-21 00:49 33.76897 -91.85410 33284 ft 484 kts 51°
2026-04-21 00:50 33.80669 -91.78779 33286 ft 483 kts 51°
2026-04-21 00:50 33.84456 -91.72104 33285 ft 483 kts 51°
2026-04-21 00:51 33.88246 -91.65421 33286 ft 484 kts 51°
2026-04-21 00:51 33.92043 -91.58710 33189 ft 486 kts 51°
2026-04-21 00:52 33.94011 -91.55367 32461 ft 491 kts 47°
2026-04-21 00:52 33.96190 -91.52218 31894 ft 486 kts 43°
2026-04-21 00:52 33.98444 -91.49212 31394 ft 481 kts 42°
2026-04-21 00:52 34.00702 -91.46253 30881 ft 477 kts 42°
2026-04-21 00:53 34.02925 -91.43307 30387 ft 473 kts 43°
2026-04-21 00:53 34.05108 -91.40360 29884 ft 470 kts 43°
2026-04-21 00:53 34.07259 -91.37411 29374 ft 466 kts 43°
2026-04-21 00:53 34.09381 -91.34478 28876 ft 462 kts 44°
2026-04-21 00:54 34.11460 -91.31597 28385 ft 459 kts 44°
2026-04-21 00:54 34.13550 -91.28702 27890 ft 455 kts 44°
2026-04-21 00:54 34.15621 -91.25832 27402 ft 451 kts 44°
2026-04-21 00:54 34.17677 -91.22983 26915 ft 448 kts 44°
2026-04-21 00:55 34.19713 -91.20159 26421 ft 444 kts 44°
2026-04-21 00:55 34.21744 -91.17353 25951 ft 441 kts 44°
2026-04-21 00:55 34.23752 -91.14572 25476 ft 437 kts 44°
2026-04-21 00:55 34.25741 -91.11815 25002 ft 433 kts 44°
2026-04-21 00:56 34.27713 -91.09079 24540 ft 429 kts 45°
2026-04-21 00:56 34.29644 -91.06400 24088 ft 426 kts 45°
2026-04-21 00:56 34.31581 -91.03710 23622 ft 420 kts 45°
2026-04-21 00:56 34.33457 -91.01099 23153 ft 403 kts 45°
2026-04-21 00:57 34.35260 -90.98585 22720 ft 388 kts 44°
2026-04-21 00:57 34.37013 -90.96144 22324 ft 381 kts 44°
2026-04-21 00:57 34.38749 -90.93729 21919 ft 379 kts 44°
2026-04-21 00:57 34.40478 -90.91325 21513 ft 377 kts 44°
2026-04-21 00:58 34.42195 -90.88932 21107 ft 376 kts 45°
2026-04-21 00:58 34.43905 -90.86547 20694 ft 374 kts 45°
2026-04-21 00:58 34.45608 -90.84169 20281 ft 373 kts 45°
2026-04-21 00:58 34.47305 -90.81798 19877 ft 372 kts 45°
2026-04-21 00:59 34.48993 -90.79438 19455 ft 370 kts 45°
2026-04-21 00:59 34.50673 -90.77072 19034 ft 369 kts 45°
2026-04-21 00:59 34.52315 -90.74687 18605 ft 368 kts 46°
2026-04-21 00:59 34.53934 -90.72308 17997 ft 371 kts 46°
2026-04-21 01:00 34.55574 -90.69895 17550 ft 369 kts 46°
2026-04-21 01:00 34.57201 -90.67506 17122 ft 363 kts 46°
2026-04-21 01:00 34.58775 -90.65195 16700 ft 347 kts 46°
2026-04-21 01:00 34.60304 -90.62954 16334 ft 343 kts 46°
2026-04-21 01:01 34.61820 -90.60732 15961 ft 339 kts 46°
2026-04-21 01:01 34.63287 -90.58499 15694 ft 339 kts 48°
2026-04-21 01:01 34.64754 -90.56202 15421 ft 348 kts 48°
2026-04-21 01:01 34.66246 -90.53854 15119 ft 353 kts 48°
2026-04-21 01:02 34.67745 -90.51494 14816 ft 352 kts 48°
2026-04-21 01:02 34.69240 -90.49149 14520 ft 350 kts 48°
2026-04-21 01:02 34.70730 -90.46817 14225 ft 348 kts 48°
2026-04-21 01:02 34.72191 -90.44530 13937 ft 345 kts 48°
2026-04-21 01:03 34.73661 -90.42228 13649 ft 343 kts 48°
2026-04-21 01:03 34.75119 -90.39943 13360 ft 341 kts 48°
2026-04-21 01:03 34.76579 -90.37654 13078 ft 339 kts 48°
2026-04-21 01:03 34.78023 -90.35390 12794 ft 337 kts 48°
2026-04-21 01:04 34.79451 -90.33146 12509 ft 333 kts 48°
2026-04-21 01:04 34.80857 -90.30936 12227 ft 326 kts 48°
2026-04-21 01:04 34.82230 -90.28777 11949 ft 319 kts 48°
2026-04-21 01:04 34.83575 -90.26660 11648 ft 314 kts 48°
2026-04-21 01:05 34.84888 -90.24592 11333 ft 309 kts 49°
2026-04-21 01:05 34.86210 -90.22511 11015 ft 305 kts 49°
2026-04-21 01:05 34.87065 -90.21164 10813 ft 301 kts 49°
2026-04-21 01:05 34.88742 -90.18522 10417 ft 295 kts 50°
2026-04-21 01:06 34.89987 -90.16558 10122 ft 290 kts 50°
2026-04-21 01:06 34.91209 -90.14630 9835 ft 286 kts 50°
2026-04-21 01:06 34.92429 -90.12743 9547 ft 280 kts 45°
2026-04-21 01:06 34.94007 -90.11437 9253 ft 275 kts 15°
2026-04-21 01:07 34.95249 -90.11126 9113 ft 276 kts
2026-04-21 01:07 34.97769 -90.11082 8786 ft 269 kts 358°
2026-04-21 01:07 34.99585 -90.11055 8487 ft 256 kts 359°
2026-04-21 01:07 35.00775 -90.11036 8309 ft 250 kts 358°
2026-04-21 01:08 35.02495 -90.11011 8046 ft 243 kts 358°
2026-04-21 01:08 35.04151 -90.10983 7813 ft 240 kts 358°
2026-04-21 01:08 35.05819 -90.10955 7579 ft 238 kts 358°
2026-04-21 01:08 35.07476 -90.10925 7347 ft 237 kts 359°
2026-04-21 01:09 35.09126 -90.10896 7110 ft 236 kts 358°
2026-04-21 01:09 35.10767 -90.10881 6877 ft 235 kts 357°
2026-04-21 01:09 35.12398 -90.10902 6639 ft 234 kts 356°
2026-04-21 01:09 35.14018 -90.10930 6451 ft 231 kts 356°
2026-04-21 01:10 35.15641 -90.10959 6200 ft 236 kts 356°
2026-04-21 01:10 35.17293 -90.10986 5942 ft 238 kts 357°
2026-04-21 01:10 35.19484 -90.11020 5622 ft 237 kts 357°
2026-04-21 01:10 35.20594 -90.11037 5460 ft 236 kts 357°
2026-04-21 01:11 35.22234 -90.11061 5222 ft 235 kts 357°
2026-04-21 01:11 35.23863 -90.11085 4985 ft 234 kts 357°
2026-04-21 01:11 35.25482 -90.11111 4750 ft 232 kts 357°
2026-04-21 01:11 35.27070 -90.11135 4520 ft 230 kts 358°
2026-04-21 01:12 35.28666 -90.11158 4294 ft 229 kts 358°
2026-04-21 01:12 35.30253 -90.11181 4063 ft 227 kts 358°
2026-04-21 01:12 35.31806 -90.11064 3892 ft 220 kts 17°
2026-04-21 01:12 35.33057 -90.10017 3800 ft 224 kts 53°
2026-04-21 01:13 35.33636 -90.08245 3707 ft 229 kts 86°
2026-04-21 01:13 35.33355 -90.06350 3578 ft 227 kts 120°
2026-04-21 01:13 35.32355 -90.04928 3476 ft 223 kts 141°
2026-04-21 01:13 35.31132 -90.03752 3360 ft 224 kts 144°
2026-04-21 01:14 35.29892 -90.02597 3244 ft 223 kts 143°
2026-04-21 01:14 35.28664 -90.01440 3124 ft 222 kts 143°
2026-04-21 01:14 35.27438 -90.00284 3011 ft 221 kts 143°
2026-04-21 01:14 35.26151 -89.99307 2873 ft 219 kts 164°
2026-04-21 01:15 35.24642 -89.99156 2792 ft 219 kts 181°
2026-04-21 01:15 35.23097 -89.99140 2692 ft 223 kts 179°
2026-04-21 01:15 35.21548 -89.99105 2569 ft 222 kts 179°
2026-04-21 01:15 35.20038 -89.99070 2449 ft 210 kts 179°
2026-04-21 01:16 35.18646 -89.99039 2332 ft 192 kts 180°
2026-04-21 01:16 35.17364 -89.99011 2213 ft 176 kts 180°
2026-04-21 01:16 35.16133 -89.98986 2148 ft 179 kts 180°
2026-04-21 01:16 35.14899 -89.98960 2097 ft 174 kts 179°
2026-04-21 01:17 35.13699 -89.98931 2071 ft 172 kts 180°
2026-04-21 01:17 35.12513 -89.98906 2037 ft 174 kts 180°
2026-04-21 01:17 35.11278 -89.98891 1718 ft 178 kts 181°
2026-04-21 01:17 35.10066 -89.98878 1411 ft 170 kts 180°
2026-04-21 01:18 35.08902 -89.98836 1189 ft 167 kts 179°
2026-04-21 01:18 35.07735 -89.98789 997 ft 169 kts 180°
2026-04-21 01:18 35.06548 -89.98788 750 ft 173 kts 180°
2026-04-21 01:18 35.05344 -89.98752 477 ft 171 kts 179°
2026-04-21 01:19 35.04148 -89.98722 347 ft 170 kts 179°
2026-04-21 01:19 35.03091 -89.98704 332 ft 110 kts 178°
2026-04-21 01:19 35.02673 -89.98693 329 ft 29 kts 180°
2026-04-21 01:19 35.02539 -89.98678 330 ft 15 kts 150°
2026-04-21 01:20 35.02532 -89.98572 331 ft 14 kts 42°
2026-04-21 01:20 35.02628 -89.98563 332 ft 14 kts 359°
2026-04-21 01:20 35.02716 -89.98565 330 ft 11 kts 359°
2026-04-21 01:20 35.02793 -89.98566 334 ft 13 kts
2026-04-21 01:21 35.02927 -89.98567 331 ft 16 kts 358°
2026-04-21 01:21 35.03035 -89.98570 331 ft 16 kts 359°
2026-04-21 01:21 35.03144 -89.98572 330 ft 16 kts 359°
2026-04-21 01:21 35.03252 -89.98574 333 ft 16 kts 358°
2026-04-21 01:22 35.03361 -89.98580 331 ft 16 kts 358°
2026-04-21 01:22 35.03469 -89.98580 334 ft 16 kts
2026-04-21 01:22 35.03578 -89.98581 332 ft 16 kts 359°
2026-04-21 01:22 35.03687 -89.98584 334 ft 16 kts 358°
2026-04-21 01:23 35.03795 -89.98588 330 ft 16 kts 358°
2026-04-21 01:23 35.03904 -89.98591 331 ft 16 kts 359°
2026-04-21 01:23 35.04012 -89.98593 332 ft 16 kts 359°
2026-04-21 01:23 35.04121 -89.98594 329 ft 16 kts 359°
2026-04-21 01:24 35.04229 -89.98596 334 ft 16 kts 359°
2026-04-21 01:24 35.04338 -89.98598 331 ft 16 kts 359°
2026-04-21 01:24 35.04445 -89.98600 330 ft 16 kts 359°
2026-04-21 01:24 35.04554 -89.98602 332 ft 16 kts 359°
2026-04-21 01:25 35.04633 -89.98604 335 ft 0 kts 359°
2026-04-21 01:25 35.04651 -89.98601 335 ft 12 kts 11°
2026-04-21 01:25 35.04708 -89.98525 332 ft 13 kts 32°
2026-04-21 01:25 35.04831 -89.98513 333 ft 20 kts 359°
2026-04-21 01:26 35.04942 -89.98515 331 ft 16 kts 360°
2026-04-21 01:26 35.05053 -89.98514 331 ft 16 kts
2026-04-21 01:26 35.05164 -89.98513 330 ft 16 kts
2026-04-21 01:26 35.05274 -89.98511 330 ft 16 kts
2026-04-21 01:27 35.05385 -89.98511 331 ft 14 kts 359°
2026-04-21 01:27 35.05482 -89.98512 330 ft 14 kts
2026-04-21 01:27 35.05576 -89.98512 331 ft 14 kts 360°
2026-04-21 01:27 35.05671 -89.98509 330 ft 14 kts
2026-04-21 01:28 35.05765 -89.98508 329 ft 14 kts
2026-04-21 01:28 35.05860 -89.98507 331 ft 14 kts 359°
2026-04-21 01:28 35.05955 -89.98515 335 ft 14 kts 355°
2026-04-21 01:28 35.06025 -89.98461 334 ft 14 kts 83°
2026-04-21 01:29 35.06023 -89.98345 333 ft 14 kts 90°
2026-04-21 01:29 35.06020 -89.98227 334 ft 15 kts 92°
2026-04-21 01:29 35.06015 -89.98086 335 ft 17 kts 91°
2026-04-21 01:29 35.06012 -89.97940 334 ft 17 kts 91°
2026-04-21 01:30 35.06005 -89.97795 335 ft 17 kts 97°
2026-04-21 01:30 35.05977 -89.97655 331 ft 17 kts 105°
2026-04-21 01:30 35.05952 -89.97537 331 ft 9 kts 103°
2026-04-21 01:30 35.05949 -89.97452 334 ft 12 kts 65°
2026-04-21 01:31 35.06011 -89.97430 330 ft 4 kts
2026-04-21 01:31 35.06023 -89.97430 334 ft 1 kts
2026-04-21 01:31 35.06024 -89.97430 335 ft 0 kts